Location: The Jewett Observatory
(46.7288°N, 117.1525°W)
Time: 15:21:03
(UTC-07:00)

Amateur Radio Satellites - All Passes

Search period start: 03 July 2015 14:51
Search period end: 04 July 2015 14:51
Location: The Jewett Observatory, 46.7288°N, 117.1525°W

Satellite Date Start Highest point End Downlink Frequencies (MHz)
Time Altitude Azimuth
AO-7 03 Jul 14:51:10 14:59:04 50° 61° (ENE) 15:07:04 29.400- 29.500
YUBILEINY 03 Jul 15:04:37 15:13:25 83° 263° (W) 15:22:12 435.215
STARS 03 Jul 15:09:43 15:12:28 17° 90° (E) 15:15:21 437.465
ISS 03 Jul 15:15:02 15:17:57 30° 218° (SW) 15:20:50 145.825
JAS-2 03 Jul 15:20:07 15:25:17 81° 74° (ENE) 15:30:45 435.910
Cosmos 2491 03 Jul 15:28:08 15:36:49 67° 93° (E) 15:45:33 435.465 / 435.565
AIST 1 03 Jul 15:31:06 15:35:08 37° 92° (E) 15:39:14
PCSat 03 Jul 15:32:45 15:37:18 29° 111° (ESE) 15:41:57 145.827
KKS-1 03 Jul 15:50:16 15:54:42 68° 102° (ESE) 15:59:06 437.445
HORYU 2 03 Jul 15:51:59 15:56:23 75° 257° (WSW) 16:00:50 437.375
AIST 2 03 Jul 15:56:56 16:00:08 21° 36° (NE) 16:03:22 435.215
BEESAT 03 Jul 15:56:59 16:00:55 25° 296° (WNW) 16:04:45 436.000
Cosmos 2504 03 Jul 16:01:45 16:08:05 31° 67° (ENE) 16:14:57 435.465 / 435.565
MOZHAYETS 4 03 Jul 16:02:12 16:03:32 11° 85° (E) 16:05:09
Cubesat XI-IV 03 Jul 16:11:41 16:11:50 10° 52° (NE) 16:12:14 437.490
BEESAT 3 03 Jul 16:12:11 16:16:17 86° 51° (NE) 16:20:18 437.485
SWISSCUBE 03 Jul 16:12:57 16:16:13 18° 300° (WNW) 16:19:19 437.505
Gurwin Techsat 1B 03 Jul 16:17:26 16:17:51 10° 277° (W) 16:17:55 435.225
ITUPSAT 1 03 Jul 16:17:45 16:21:01 18° 300° (WNW) 16:24:08 437.325
BEESAT 2 03 Jul 16:22:54 16:27:02 88° 53° (NE) 16:31:05 435.950
AO-7 03 Jul 16:44:06 16:52:01 44° 262° (W) 16:59:55 29.400- 29.500
STARS 03 Jul 16:45:01 16:49:19 54° 288° (WNW) 16:53:34 437.465
SO-50 03 Jul 16:54:06 16:58:19 33° 117° (ESE) 17:02:43 436.795
O/OREOS (USA 219) 03 Jul 16:58:42 17:03:05 47° 60° (ENE) 17:07:29 437.305
YUBILEINY 03 Jul 17:03:18 17:09:02 19° 283° (WNW) 17:14:22 435.215
JAS-2 03 Jul 17:08:46 17:11:25 13° 276° (W) 17:13:50 435.910
AIST 1 03 Jul 17:09:20 17:12:57 23° 291° (WNW) 17:16:28
CUTE-I 03 Jul 17:12:34 17:17:09 30° 64° (ENE) 17:21:51 437.470
PCSat 03 Jul 17:15:14 17:20:30 51° 310° (NW) 17:25:49 145.827
Cosmos 2491 03 Jul 17:26:41 17:34:28 32° 296° (WNW) 17:42:05 435.465 / 435.565
KKS-1 03 Jul 17:28:10 17:30:52 16° 299° (WNW) 17:33:25 437.445
AIST 2 03 Jul 17:34:57 17:39:10 69° 236° (SW) 17:43:17 435.215
MOZHAYETS 4 03 Jul 17:36:50 17:41:31 87° 283° (WNW) 17:46:10
Cubesat XI-IV 03 Jul 17:45:40 17:50:54 56° 70° (ENE) 17:56:11 437.490
GONETS M04 03 Jul 17:47:16 17:48:51 11° 43° (NE) 17:51:01
BEESAT 3 03 Jul 17:52:29 17:53:38 11° 250° (WSW) 17:54:35 437.485
Cosmos 2504 03 Jul 17:53:31 18:00:47 61° 267° (W) 18:08:33 435.465 / 435.565
CUBESAT XI-V 03 Jul 18:01:49 18:04:50 17° 88° (E) 18:07:59 437.345
BEESAT 2 03 Jul 18:03:23 18:04:29 11° 250° (WSW) 18:05:24 435.950
HO-68 03 Jul 18:13:02 18:16:33 15° 47° (NE) 18:20:22 435.675
SO-50 03 Jul 18:34:13 18:38:47 42° 316° (NW) 18:43:29 436.795
STRAND 1 03 Jul 18:34:55 18:37:19 14° 86° (E) 18:39:59 437.568
GOMX 1 03 Jul 18:37:19 18:39:44 14° 61° (ENE) 18:42:17 467.674
O/OREOS (USA 219) 03 Jul 18:38:48 18:42:13 21° 257° (WSW) 18:45:32 437.305
PRISM 03 Jul 18:40:46 18:42:04 11° 87° (E) 18:43:35 437.425
CUTE-I 03 Jul 18:51:59 18:57:06 43° 262° (W) 19:02:13 437.470
BRITE-PL 03 Jul 18:54:48 18:59:29 31° 67° (ENE) 19:03:59 437.365/2234.400
DANDE 03 Jul 18:58:55 19:01:43 31° 71° (ENE) 19:04:10 436.750
PCSat 03 Jul 19:02:14 19:05:17 15° 333° (NNW) 19:08:14 145.827
MOZHAYETS 4 03 Jul 19:16:02 19:18:05 13° 301° (WNW) 19:19:57
DOVE 4 03 Jul 19:24:19 19:27:56 22° 66° (ENE) 19:31:31 437.250
Cubesat XI-IV 03 Jul 19:27:10 19:31:24 23° 269° (W) 19:35:33 437.490
SEEDS 03 Jul 19:27:59 19:30:25 16° 63° (ENE) 19:32:59 437.485
CUBESAT XI-V 03 Jul 19:38:05 19:42:44 59° 287° (WNW) 19:47:19 437.345
GONETS M04 03 Jul 19:40:28 19:48:46 46° 70° (ENE) 19:57:04
AAUSAT CUBESAT 2 03 Jul 19:41:26 19:43:43 15° 62° (ENE) 19:46:07 437.432
CUSAT 1 03 Jul 19:43:52 19:46:12 25° 266° (W) 19:48:23 437.405
Cosmos 2504 03 Jul 19:49:44 19:51:45 11° 285° (WNW) 19:53:13 435.465 / 435.565
Oscar 11 03 Jul 19:53:41 19:54:05 10° 58° (ENE) 19:54:41 145.826/435.025
HO-68 03 Jul 19:56:02 20:03:00 60° 67° (ENE) 20:10:02 435.675
COMPASS 1 03 Jul 20:05:19 20:08:52 28° 68° (ENE) 20:12:29 437.405
CUTE 1.7 + AOD 2 03 Jul 20:12:05 20:16:08 49° 72° (ENE) 20:20:16 437.475
STRAND 1 03 Jul 20:12:07 20:17:19 85° 283° (WNW) 20:22:28 437.568
GOMX 1 03 Jul 20:12:11 20:17:21 90° 288° (WNW) 20:22:12 467.674
PRISM 03 Jul 20:13:53 20:18:07 75° 286° (WNW) 20:22:17 437.425
CANX-2 03 Jul 20:15:14 20:19:22 59° 73° (ENE) 20:23:33 2200.000
CINEMA 3 03 Jul 20:15:50 20:19:45 31° 68° (ENE) 20:23:34 145.822/145.860
SO-50 03 Jul 20:18:05 20:20:40 14° 339° (NNW) 20:23:10 436.795
FUNcube-1 03 Jul 20:19:18 20:19:50 10° 59° (ENE) 20:20:35 145.935
Cosmos 2499 03 Jul 20:26:19 20:31:46 21° 59° (ENE) 20:37:47 435.465 / 435.565
UWE-3 03 Jul 20:27:22 20:29:57 16° 63° (ENE) 20:32:38 435.000/436.395/437.385
BRITE-PL 03 Jul 20:32:45 20:37:54 41° 263° (W) 20:42:45 437.365/2234.400
AUBIESAT-1 03 Jul 20:49:59 20:52:50 18° 97° (E) 20:55:56 437.475
DOVE 4 03 Jul 21:00:46 21:05:29 48° 261° (W) 21:09:57 437.250
SEEDS 03 Jul 21:01:40 21:05:47 60° 260° (W) 21:09:57 437.485
DX 1 03 Jul 21:02:49 21:04:54 14° 60° (ENE) 21:07:09 434.975-435.025
CUBEBUG 2 03 Jul 21:09:15 21:13:24 51° 72° (ENE) 21:17:30 437.445
AAUSAT CUBESAT 2 03 Jul 21:14:46 21:18:52 62° 259° (WSW) 21:23:01 437.432
ZACube-1 03 Jul 21:15:14 21:19:05 37° 70° (ENE) 21:22:57 437.345
M-CUBED/EXP-1 PRIME 03 Jul 21:22:40 21:26:38 42° 104° (ESE) 21:30:54 437.505
UKube-1 03 Jul 21:23:49 21:26:52 19° 63° (ENE) 21:30:01 .
Oscar 11 03 Jul 21:25:17 21:29:34 79° 75° (ENE) 21:33:54 145.826/435.025
DELFI C3 03 Jul 21:35:42 21:39:41 72° 75° (ENE) 21:43:43 145.870
AISAT 03 Jul 21:36:19 21:39:07 17° 62° (ENE) 21:42:04 437.250
GONETS M04 03 Jul 21:37:32 21:45:40 45° 272° (W) 21:53:39
HUMSAT D 03 Jul 21:40:39 21:44:14 30° 68° (ENE) 21:47:52 437.325/437.525
COMPASS 1 03 Jul 21:40:52 21:44:31 29° 266° (W) 21:48:09 437.405
HO-68 03 Jul 21:44:57 21:51:12 31° 267° (W) 21:57:19 435.675
50 SAT 03 Jul 21:47:09 21:49:47 19° 65° (ENE) 21:52:32 437.505
CUTE 1.7 + AOD 2 03 Jul 21:49:33 21:52:24 17° 271° (W) 21:55:07 437.475
FUNcube-1 03 Jul 21:51:21 21:55:34 86° 77° (ENE) 21:59:45 145.935
CINEMA 3 03 Jul 21:53:00 21:56:57 29° 265° (W) 22:00:45 145.822/145.860
STRAND 1 03 Jul 21:53:03 21:55:49 14° 303° (WNW) 21:58:23 437.568
CANX-2 03 Jul 21:53:22 21:55:45 14° 272° (W) 21:57:59 2200.000
GOMX 1 03 Jul 21:54:02 21:56:09 12° 274° (W) 21:57:56 467.674
CUBEBUG 1 03 Jul 21:57:01 21:59:27 15° 61° (ENE) 22:02:02 437.445
UWE-3 03 Jul 22:01:57 22:06:08 56° 260° (W) 22:10:15 435.000/436.395/437.385
ESTCUBE 1 03 Jul 22:05:02 22:08:22 21° 63° (ENE) 22:11:48 437.505/2401.250
Cosmos 2499 03 Jul 22:18:19 22:26:06 88° 81° (E) 22:34:30 435.465 / 435.565
UNISAT 6 03 Jul 22:21:40 22:24:15 16° 89° (E) 22:27:01 437.425
AUBIESAT-1 03 Jul 22:23:46 22:27:48 53° 293° (WNW) 22:32:07 437.475
VELOX 1 03 Jul 22:24:10 22:28:24 44° 70° (ENE) 22:32:40 145.980
PCSat 03 Jul 22:34:34 22:37:16 14° 25° (NNE) 22:40:06 145.827
DX 1 03 Jul 22:36:12 22:40:36 79° 256° (WSW) 22:45:01 434.975-435.025
CUBEBUG 2 03 Jul 22:47:38 22:50:26 16° 270° (W) 22:53:05 437.445
ZACube-1 03 Jul 22:52:16 22:55:36 22° 267° (W) 22:58:51 437.345
M-CUBED/EXP-1 PRIME 03 Jul 22:57:59 23:01:17 23° 299° (WNW) 23:04:41 437.505
UKube-1 03 Jul 22:58:26 23:02:40 50° 260° (W) 23:06:56 .
SPROUT 03 Jul 23:01:05 23:04:06 19° 64° (ENE) 23:07:12 437.525
ANTELSAT 03 Jul 23:05:03 23:09:12 41° 98° (E) 23:13:27 437.575/2403.000
Oscar 11 03 Jul 23:05:04 23:06:25 11° 274° (W) 23:07:32 145.826/435.025
AISAT 03 Jul 23:10:50 23:15:17 62° 259° (WSW) 23:19:44 437.250
DELFI C3 03 Jul 23:14:14 23:15:21 11° 274° (W) 23:16:15 145.870
QB50P1 03 Jul 23:16:23 23:19:43 23° 93° (E) 23:23:08 145.935-145.965
HUMSAT D 03 Jul 23:16:32 23:20:00 26° 266° (W) 23:23:26 437.325/437.525
TIGRISAT 03 Jul 23:17:40 23:21:56 54° 100° (E) 23:26:18 435.000
50 SAT 03 Jul 23:20:33 23:24:11 39° 262° (W) 23:27:49 437.505
NANOSAT C BR1 03 Jul 23:30:35 23:34:21 31° 96° (E) 23:38:08 145.865
CUBEBUG 1 03 Jul 23:30:52 23:35:19 72° 258° (WSW) 23:39:46 437.445
DUCHIFAT 1 03 Jul 23:37:42 23:41:35 36° 97° (E) 23:45:28 145.980
ESTCUBE 1 03 Jul 23:40:30 23:44:55 50° 261° (W) 23:49:22 437.505/2401.250
POLYITAN 1 03 Jul 23:41:48 23:45:50 42° 98° (E) 23:49:51 437.675
SO-50 03 Jul 23:42:32 23:45:55 18° 28° (NNE) 23:49:22 436.795
TISAT 1 03 Jul 23:44:29 23:48:18 34° 69° (ENE) 23:52:09 437.305
BEESAT 03 Jul 23:54:30 23:55:29 11° 55° (NE) 23:56:43 436.000
UNISAT 6 03 Jul 23:57:09 00:01:27 58° 287° (WNW) 00:05:49 437.425
BUGSAT 1 03 Jul 23:57:44 00:01:33 39° 98° (E) 00:05:22 437.445
VELOX 1 04 Jul 00:01:43 00:05:11 21° 268° (W) 00:08:33 145.980
SWISSCUBE 04 Jul 00:08:04 00:10:45 16° 59° (ENE) 00:13:38 437.505
QB50P2 04 Jul 00:11:31 00:15:45 90° 95° (E) 00:19:59 145.880/145.840
POPSAT HIP 1 04 Jul 00:12:25 00:16:39 89° 103° (ESE) 00:20:51 437.405
Cosmos 2499 04 Jul 00:12:59 00:18:29 20° 279° (W) 00:23:51 435.465 / 435.565
ITUPSAT 1 04 Jul 00:13:01 00:15:45 16° 59° (ENE) 00:18:39 437.325
PCSat 04 Jul 00:16:55 00:22:08 46° 49° (NE) 00:27:22 145.827
RS-15 04 Jul 00:27:04 00:30:27 12° 95° (E) 00:34:51 29.354- 29.394
SPROUT 04 Jul 00:35:40 00:39:52 49° 261° (W) 00:44:05 437.525
ANTELSAT 04 Jul 00:42:21 00:45:48 23° 295° (WNW) 00:49:13 437.575/2403.000
QB50P1 04 Jul 00:51:50 00:55:42 36° 291° (WNW) 00:59:32 145.935-145.965
TIGRISAT 04 Jul 00:55:21 00:58:22 18° 297° (WNW) 01:01:17 435.000
Oscar 19 04 Jul 01:05:58 01:08:47 15° 87° (E) 01:11:49 437.125/150
NANOSAT C BR1 04 Jul 01:06:33 01:10:06 27° 293° (WNW) 01:13:36 145.865
DUCHIFAT 1 04 Jul 01:13:51 01:17:14 23° 294° (WNW) 01:20:30 145.980
KKS-1 04 Jul 01:17:54 01:19:25 12° 58° (ENE) 01:21:09 437.445
POLYITAN 1 04 Jul 01:18:18 01:21:30 21° 295° (WNW) 01:24:35 437.675
TISAT 1 04 Jul 01:20:35 01:24:08 25° 266° (W) 01:27:38 437.305
SO-50 04 Jul 01:22:26 01:27:24 68° 50° (NE) 01:32:18 436.795
BEESAT 04 Jul 01:27:47 01:32:32 70° 73° (ENE) 01:37:20 436.000
BUGSAT 1 04 Jul 01:33:43 01:36:49 21° 295° (WNW) 01:39:48 437.445
Cosmos 2491 04 Jul 01:35:06 01:43:06 39° 67° (ENE) 01:51:09 435.465 / 435.565
AIST 1 04 Jul 01:36:22 01:38:33 14° 63° (ENE) 01:40:53
SWISSCUBE 04 Jul 01:43:16 01:48:03 79° 257° (WSW) 01:52:53 437.505
ITUPSAT 1 04 Jul 01:48:17 01:53:05 78° 257° (WSW) 01:57:55 437.325
QB50P2 04 Jul 01:49:41 01:51:02 11° 301° (WNW) 01:52:13 145.880/145.840
POPSAT HIP 1 04 Jul 01:50:32 01:51:55 11° 301° (WNW) 01:53:07 437.405
PCSat 04 Jul 02:00:38 02:05:26 32° 248° (WSW) 02:10:10 145.827
STARS 04 Jul 02:09:15 02:12:37 22° 64° (ENE) 02:16:04 437.465
YUBILEINY 04 Jul 02:14:56 02:21:17 24° 80° (E) 02:27:57 435.215
JAS-2 04 Jul 02:28:12 02:29:03 10° 81° (E) 02:30:28 435.910
RS-15 04 Jul 02:29:58 02:40:29 59° 116° (ESE) 02:51:27 29.354- 29.394
Oscar 19 04 Jul 02:43:41 02:48:50 77° 286° (WNW) 02:53:57 437.125/150
Gurwin Techsat 1B 04 Jul 02:44:56 02:49:49 36° 96° (E) 02:54:43 435.225
KKS-1 04 Jul 02:50:57 02:55:25 87° 76° (ENE) 02:59:54 437.445
ITAMSAT 1 04 Jul 02:54:06 02:59:02 41° 97° (E) 03:03:57 435.822/435.867
AO-7 04 Jul 02:54:09 02:54:47 10° 79° (ENE) 02:56:11 29.400- 29.500
SO-50 04 Jul 03:03:54 03:07:31 20° 248° (WSW) 03:10:58 436.795
MOZHAYETS 4 04 Jul 03:06:28 03:09:13 16° 61° (ENE) 03:12:09
BEESAT 04 Jul 03:08:07 03:10:57 15° 272° (W) 03:13:37 436.000
AIST 1 04 Jul 03:12:26 03:16:48 68° 264° (W) 03:21:05
Cosmos 2491 04 Jul 03:31:54 03:40:22 55° 269° (W) 03:48:42 435.465 / 435.565
HORYU 2 04 Jul 03:41:16 03:44:09 17° 90° (E) 03:47:11 437.375
STARS 04 Jul 03:44:38 03:48:50 43° 261° (W) 03:53:02 437.465
YUBILEINY 04 Jul 04:08:32 04:17:15 80° 281° (W) 04:26:00 435.215
JAS-2 04 Jul 04:08:59 04:15:25 60° 100° (E) 04:22:38 435.910
Gurwin Techsat 1B 04 Jul 04:24:59 04:29:48 35° 294° (WNW) 04:34:32 435.225
Oscar 19 04 Jul 04:25:07 04:27:25 13° 304° (NW) 04:29:31 437.125/150
KKS-1 04 Jul 04:31:41 04:32:47 11° 274° (W) 04:33:37 437.445
ITAMSAT 1 04 Jul 04:33:51 04:38:27 31° 295° (WNW) 04:42:56 435.822/435.867
Cosmos 2504 04 Jul 04:38:54 04:43:04 18° 80° (E) 04:47:32 435.465 / 435.565
MOZHAYETS 4 04 Jul 04:41:25 04:45:59 68° 259° (W) 04:50:36
AO-7 04 Jul 04:41:38 04:49:50 56° 101° (ESE) 04:58:01 29.400- 29.500
RS-15 04 Jul 04:42:31 04:53:13 53° 323° (NW) 05:04:20 29.354- 29.394
CUBESAT XI-V 04 Jul 05:07:47 05:11:30 24° 65° (ENE) 05:15:20 437.345
HORYU 2 04 Jul 05:16:48 05:21:11 55° 288° (WNW) 05:25:32 437.375
PRISM 04 Jul 05:33:27 05:35:34 14° 61° (ENE) 05:37:51 437.425
Cosmos 2491 04 Jul 05:34:00 05:35:21 10° 290° (WNW) 05:36:00 435.465 / 435.565
STRAND 1 04 Jul 05:52:49 05:57:05 28° 64° (ENE) 06:01:28 437.568
JAS-2 04 Jul 05:54:43 06:00:15 31° 297° (WNW) 06:06:13 435.910
Cubesat XI-IV 04 Jul 06:01:06 06:04:33 18° 88° (E) 06:08:10 437.490
YUBILEINY 04 Jul 06:09:38 06:15:49 20° 306° (NW) 06:21:41 435.215
Cosmos 2504 04 Jul 06:27:28 06:34:25 84° 279° (W) 06:41:24 435.465 / 435.565
AO-7 04 Jul 06:34:47 06:42:28 41° 302° (WNW) 06:50:02 29.400- 29.500
CUBESAT XI-V 04 Jul 06:44:12 06:48:43 44° 262° (W) 06:53:16 437.345
RS-15 04 Jul 06:59:11 07:08:53 32° 355° (N) 07:18:57 29.354- 29.394
CUTE-I 04 Jul 07:05:46 07:11:06 61° 101° (E) 07:16:24 437.470
PRISM 04 Jul 07:06:22 07:10:31 70° 258° (WSW) 07:14:44 437.425
CUSAT 1 04 Jul 07:09:51 07:14:38 24° 94° (E) 07:18:41 437.405
O/OREOS (USA 219) 04 Jul 07:14:13 07:18:06 31° 106° (ESE) 07:22:03 437.305
STRAND 1 04 Jul 07:31:11 07:36:06 45° 262° (W) 07:41:04 437.568
AIST 2 04 Jul 07:37:42 07:39:27 13° 110° (ESE) 07:41:23 435.215
Cubesat XI-IV 04 Jul 07:39:54 07:45:17 71° 288° (WNW) 07:50:37 437.490
AUBIESAT-1 04 Jul 07:40:41 07:43:36 29° 63° (ENE) 07:46:41 437.475
BEESAT 3 04 Jul 07:44:37 07:48:38 63° 124° (ESE) 07:52:44 437.485
BEESAT 2 04 Jul 07:56:22 08:00:27 66° 124° (ESE) 08:04:34 435.950
ISS 04 Jul 07:56:23 07:58:29 17° 137° (SE) 08:00:40 145.825
DANDE 04 Jul 08:09:38 08:16:37 59° 98° (E) 08:21:58 436.750
GOMX 1 04 Jul 08:12:23 08:15:18 18° 90° (E) 08:18:16 467.674
M-CUBED/EXP-1 PRIME 04 Jul 08:14:17 08:17:36 88° 71° (ENE) 08:21:05 437.505
VERMONT LUNAR 04 Jul 08:22:51 08:24:54 16° 162° (SSE) 08:26:59 437.305
Cosmos 2504 04 Jul 08:23:37 08:27:58 17° 303° (WNW) 08:32:03 435.465 / 435.565
AO-7 04 Jul 08:29:58 08:33:07 12° 326° (NW) 08:35:57 29.400- 29.500
BRITE-PL 04 Jul 08:34:54 08:39:12 52° 99° (E) 08:43:17 437.365/2234.400
SEEDS 04 Jul 08:43:48 08:46:47 19° 91° (E) 08:49:52 437.485
GONETS M04 04 Jul 08:45:02 08:53:15 48° 89° (E) 09:01:32
CUTE-I 04 Jul 08:46:39 08:50:48 23° 299° (WNW) 08:54:48 437.470
CUSAT 1 04 Jul 08:51:04 08:57:11 50° 284° (WNW) 09:01:49 437.405
O/OREOS (USA 219) 04 Jul 08:53:28 08:57:30 32° 305° (NW) 09:01:32 437.305
AAUSAT CUBESAT 2 04 Jul 08:55:41 08:58:25 17° 90° (E) 09:01:17 437.432
DOVE 4 04 Jul 08:57:03 09:00:50 33° 96° (E) 09:04:36 437.250
HO-68 04 Jul 09:08:00 09:14:51 47° 99° (E) 09:21:43 435.675
Oscar 11 04 Jul 09:11:41 09:13:18 12° 86° (E) 09:15:07 145.826/435.025
Cosmos 2499 04 Jul 09:12:38 09:13:56 11° 74° (ENE) 09:15:45 435.465 / 435.565
AIST 2 04 Jul 09:13:12 09:17:28 83° 307° (NW) 09:21:46 435.215
RS-15 04 Jul 09:14:27 09:25:09 42° 28° (NNE) 09:36:22 29.354- 29.394
AUBIESAT-1 04 Jul 09:15:59 09:18:29 19° 262° (W) 09:21:01 437.475
COMPASS 1 04 Jul 09:20:47 09:24:41 35° 96° (E) 09:28:36 437.405
Cubesat XI-IV 04 Jul 09:22:09 09:24:32 13° 306° (NW) 09:26:41 437.490
UNISAT 6 04 Jul 09:23:39 09:26:43 20° 64° (ENE) 09:29:52 437.425
BEESAT 3 04 Jul 09:23:48 09:26:59 21° 323° (NW) 09:30:08 437.485
CUTE 1.7 + AOD 2 04 Jul 09:29:56 09:34:14 68° 102° (ESE) 09:38:30 437.475
ISS 04 Jul 09:31:17 09:34:32 87° 331° (NNW) 09:37:48 145.825
CANX-2 04 Jul 09:33:15 09:37:34 82° 101° (ESE) 09:41:52 2200.000
QB50P2 04 Jul 09:34:16 09:35:49 12° 60° (ENE) 09:37:33 145.880/145.840
POPSAT HIP 1 04 Jul 09:35:07 09:36:36 12° 60° (ENE) 09:38:17 437.405
BEESAT 2 04 Jul 09:35:44 09:38:55 21° 324° (NW) 09:42:04 435.950
FUNcube-1 04 Jul 09:38:14 09:40:09 13° 88° (E) 09:42:16 145.935
CINEMA 3 04 Jul 09:44:06 09:48:08 48° 99° (E) 09:52:15 145.822/145.860
UWE-3 04 Jul 09:49:10 09:52:27 22° 92° (E) 09:55:50 435.000/436.395/437.385
GOMX 1 04 Jul 09:49:44 09:53:46 43° 290° (WNW) 09:57:41 467.674
DANDE 04 Jul 09:54:24 09:59:57 25° 291° (WNW) 10:04:20 436.750
VERMONT LUNAR 04 Jul 09:58:37 10:01:18 26° 179° (S) 10:03:59 437.305
ANTELSAT 04 Jul 10:06:53 10:11:02 51° 72° (ENE) 10:15:12 437.575/2403.000
QB50P1 04 Jul 10:11:50 10:15:21 26° 67° (ENE) 10:18:56 145.935-145.965
PHONESAT 2.4 04 Jul 10:13:48 10:16:28 21° 165° (SSE) 10:19:09 2401.200-2431.200
BRITE-PL 04 Jul 10:14:25 10:17:22 17° 298° (WNW) 10:20:06 437.365/2234.400
SEEDS 04 Jul 10:18:44 10:22:50 45° 288° (WNW) 10:26:54 437.485
TIGRISAT 04 Jul 10:19:13 10:23:28 67° 74° (ENE) 10:27:42 435.000
DX 1 04 Jul 10:23:08 10:25:26 14° 89° (E) 10:27:56 434.975-435.025
NANOSAT C BR1 04 Jul 10:25:44 10:29:35 35° 69° (ENE) 10:33:27 145.865
AAUSAT CUBESAT 2 04 Jul 10:30:15 10:34:21 49° 288° (WNW) 10:38:25 437.432
DUCHIFAT 1 04 Jul 10:32:37 10:36:33 40° 70° (ENE) 10:40:32 145.980
CUBEBUG 2 04 Jul 10:33:33 10:37:46 80° 101° (E) 10:42:03 437.445
DOVE 4 04 Jul 10:35:06 10:38:31 24° 294° (WNW) 10:41:51 437.250
ZACube-1 04 Jul 10:36:33 10:40:41 53° 100° (E) 10:44:52 437.345
POLYITAN 1 04 Jul 10:37:22 10:41:26 47° 71° (ENE) 10:45:31 437.675
GONETS M04 04 Jul 10:41:56 10:50:16 44° 291° (WNW) 10:58:30
UKube-1 04 Jul 10:43:33 10:46:51 21° 92° (E) 10:50:13 .
Oscar 11 04 Jul 10:45:43 10:50:05 75° 285° (WNW) 10:54:25 145.826/435.025
DELFI C3 04 Jul 10:46:47 10:50:53 84° 102° (ESE) 10:54:58 145.870
BUGSAT 1 04 Jul 10:50:12 10:54:11 42° 70° (ENE) 10:58:09 437.445
50 SAT 04 Jul 10:53:51 10:56:33 18° 91° (E) 10:59:21 437.505
AIST 2 04 Jul 10:53:52 10:56:43 17° 328° (NNW) 10:59:31 435.215
HO-68 04 Jul 10:55:57 11:02:33 41° 298° (WNW) 11:09:04 435.675
COMPASS 1 04 Jul 10:56:45 11:00:13 24° 294° (WNW) 11:03:36 437.405
HUMSAT D 04 Jul 10:56:45 11:00:39 38° 97° (E) 11:04:36 437.325/437.525
Cosmos 2499 04 Jul 10:58:46 11:05:42 66° 94° (E) 11:12:49 435.465 / 435.565
UNISAT 6 04 Jul 10:59:06 11:03:14 45° 261° (W) 11:07:21 437.425
AISAT 04 Jul 10:59:22 11:02:36 20° 91° (E) 11:05:55 437.250
QB50P2 04 Jul 11:06:53 11:11:09 84° 256° (WSW) 11:15:25 145.880/145.840
CUTE 1.7 + AOD 2 04 Jul 11:07:14 11:09:40 15° 298° (WNW) 11:11:57 437.475
POPSAT HIP 1 04 Jul 11:07:39 11:11:54 85° 256° (WSW) 11:16:10 437.405
ISS 04 Jul 11:08:11 11:11:13 34° 354° (N) 11:14:14 145.825
CANX-2 04 Jul 11:11:02 11:12:56 13° 300° (WNW) 11:14:41 2200.000
FUNcube-1 04 Jul 11:12:48 11:16:58 65° 286° (WNW) 11:21:12 145.935
CUBEBUG 1 04 Jul 11:17:55 11:20:46 17° 90° (E) 11:23:45 437.445
CINEMA 3 04 Jul 11:22:11 11:25:04 18° 296° (WNW) 11:27:52 145.822/145.860
UWE-3 04 Jul 11:25:14 11:29:07 37° 290° (WNW) 11:33:04 435.000/436.395/437.385
RS-15 04 Jul 11:27:22 11:39:04 86° 234° (SW) 11:51:14 29.354- 29.394
ESTCUBE 1 04 Jul 11:30:31 11:34:25 28° 94° (E) 11:38:20 437.505/2401.250
VERMONT LUNAR 04 Jul 11:35:25 11:37:43 19° 195° (SSW) 11:40:00 437.305
ANTELSAT 04 Jul 11:45:22 11:48:12 17° 270° (W) 11:50:52 437.575/2403.000
QB50P1 04 Jul 11:47:15 11:51:08 33° 264° (W) 11:54:58 145.935-145.965
VELOX 1 04 Jul 11:47:57 11:52:20 59° 101° (E) 11:56:41 145.980
PHONESAT 2.4 04 Jul 11:50:57 11:53:59 29° 182° (S) 11:57:01 2401.200-2431.200
DX 1 04 Jul 11:57:52 12:02:11 62° 287° (WNW) 12:06:28 434.975-435.025
TIGRISAT 04 Jul 11:58:43 12:00:45 13° 272° (W) 12:02:36 435.000
NANOSAT C BR1 04 Jul 12:02:01 12:05:30 24° 267° (W) 12:08:56 145.865
DUCHIFAT 1 04 Jul 12:09:16 12:12:33 21° 268° (W) 12:15:44 145.980
CUBEBUG 2 04 Jul 12:12:11 12:13:57 12° 299° (WNW) 12:15:34 437.445
ZACube-1 04 Jul 12:13:54 12:16:43 17° 296° (WNW) 12:19:26 437.345
POLYITAN 1 04 Jul 12:14:38 12:17:37 18° 269° (W) 12:20:30 437.675
UKube-1 04 Jul 12:19:05 12:23:11 41° 291° (WNW) 12:27:14 .
SPROUT 04 Jul 12:19:52 12:23:15 23° 93° (E) 12:26:42 437.525
YUBILEINY 04 Jul 12:20:10 12:24:31 15° 49° (NE) 12:29:20 435.215
DELFI C3 04 Jul 12:24:02 12:25:24 11° 300° (WNW) 12:26:36 145.870
Oscar 19 04 Jul 12:25:04 12:29:28 30° 65° (ENE) 12:33:56 437.125/150
BUGSAT 1 04 Jul 12:26:38 12:29:51 20° 268° (W) 12:32:56 437.445
50 SAT 04 Jul 12:27:41 12:31:22 40° 289° (WNW) 12:35:02 437.505
Gurwin Techsat 1B 04 Jul 12:32:39 12:34:52 13° 55° (NE) 12:37:19 435.225
HUMSAT D 04 Jul 12:32:57 12:36:13 22° 294° (WNW) 12:39:24 437.325/437.525
AISAT 04 Jul 12:35:12 12:39:27 45° 290° (WNW) 12:43:37 437.250
ITAMSAT 1 04 Jul 12:38:44 12:41:15 14° 56° (NE) 12:44:00 435.822/435.867
ISS 04 Jul 12:44:57 12:48:03 41° 13° (NNE) 12:51:09 145.825
HO-68 04 Jul 12:47:56 12:48:31 10° 320° (NW) 12:48:45 435.675
GONETS M04 04 Jul 12:49:22 12:50:17 10° 318° (NW) 12:50:39
CUBEBUG 1 04 Jul 12:53:14 12:57:30 51° 288° (WNW) 13:01:42 437.445
Cosmos 2499 04 Jul 12:53:48 12:59:35 26° 297° (WNW) 13:05:20 435.465 / 435.565
TISAT 1 04 Jul 13:01:22 13:05:20 40° 98° (E) 13:09:17 437.305
ESTCUBE 1 04 Jul 13:07:12 13:11:21 35° 292° (WNW) 13:15:25 437.505/2401.250
VELOX 1 04 Jul 13:25:32 13:28:29 17° 298° (WNW) 13:31:18 145.980
BEESAT 04 Jul 13:26:36 13:29:09 15° 87° (E) 13:31:54 436.000
PHONESAT 2.4 04 Jul 13:28:58 13:31:27 18° 198° (SSW) 13:33:56 2401.200-2431.200
RS-15 04 Jul 13:41:02 13:50:13 26° 257° (WSW) 13:59:07 29.354- 29.394
SWISSCUBE 04 Jul 13:41:23 13:45:03 22° 91° (E) 13:48:49 437.505
ITUPSAT 1 04 Jul 13:46:40 13:50:22 22° 92° (E) 13:54:10 437.325
AO-7 04 Jul 13:53:32 13:59:54 26° 50° (NE) 14:06:31 29.400- 29.500
SPROUT 04 Jul 13:55:30 13:59:29 37° 290° (WNW) 14:03:24 437.525
Oscar 19 04 Jul 14:03:53 14:08:43 40° 263° (W) 14:13:32 437.125/150
Gurwin Techsat 1B 04 Jul 14:08:45 14:14:02 74° 73° (ENE) 14:19:23 435.225
ITAMSAT 1 04 Jul 14:14:48 14:20:01 81° 74° (ENE) 14:25:18 435.822/435.867
YUBILEINY 04 Jul 14:15:05 14:23:45 61° 75° (ENE) 14:32:26 435.215
ISS 04 Jul 14:21:22 14:24:33 53° 212° (SSW) 14:27:43 145.825
BEESAT 3 04 Jul 14:23:27 14:26:12 17° 33° (NNE) 14:29:00 437.485
JAS-2 04 Jul 14:26:00 14:30:27 30° 63° (ENE) 14:35:14 435.910
BEESAT 2 04 Jul 14:35:38 14:38:29 18° 34° (NE) 14:41:23 435.950
TISAT 1 04 Jul 14:37:38 14:40:53 22° 295° (WNW) 14:44:03 437.305
KKS-1 04 Jul 14:40:47 14:42:56 14° 88° (E) 14:45:17 437.445
HORYU 2 04 Jul 14:42:12 14:45:40 23° 64° (ENE) 14:49:13 437.375
